SL-16 DEB, 24300

Orbit data source: Space-Track

SL-16 DEB, 24300 is space debris in LEO originally from a launch on Wed, 04 Sep 1996 UTC launched from the Tyuratam Missile And Space Complex (TTMTR). Debris objects in space refer to the collection of defunct objects orbiting the Earth. Examples of debris include non-operational satellites, rocket bodies, and fragments generated from explosions, collisions, or faulty payload assembly.

Loading next visibility...
Identifier
24300, 1996-051D
Orbit
LEO
Country
Flag of CISCIS
Related business
Manufacturer
Yuzhnoe
Mission
Spacecraft
Bus & Motor
SEP MOTOR COVER, Unknown motor
Mass
~0 kg wet, ~1 kg dry
Launch date (UTC)
1996-09-04 (29 years ago)
Launch vehicle
Unknown
Launch site
Tyuratam Missile And Space Complex (TTMTR)
Object type
Payload
Rocket body
Debris
Shape & HBR
Unknown
Radar Cross Section
Small (<0.1 m²)

Expand to show TLE details & history
Last TLE update: 1 day ago

TLE from 1 day ago
0 SL-16 DEB
1 24300U 96051D   25260.52184358  .00000103  00000-0  13269-3 0  9999
2 24300  71.0262 286.7294 0192912 115.2614   4.2429 13.74690565455811
Epoch: 2025-09-17T12:31Z
TLE epoch observation values (Epoch: 2025-09-17T12:31:27.285Z)
Latitude
55.3641°
Longitude
-107.50613°
Altitude
849.801 km
Speed
7.505 km/s
True Right ascension
05h 08m 12s
True Declination
55° 12' 19"
Sunlit
Object was in daylight at epoch
Visualization orbit readout
Latitude
Unknown
Longitude
Unknown
Altitude
Unknown
Speed
Unknown
Apparent Right ascension
Unknown
Apparent Declination
Unknown
Sunlit
N/A
Visualization observer readout
Local Sidereal Time
14:42:15
Azimuth
Unknown
Elevation
Unknown
Doppler factor
Unknown
Orbital elements
Apogee altitude
1,122.702 km
Perigee altitude
838.779 km
Semi-major axis
7,358.877 km
Eccentricity
0.01929
Inclination
71.0262°
RAAN
286.7294°
Arg. of periapsis
115.2614°
True anomaly
4.41048°
Mean anomaly
4.2429°
Eccentric anomaly
4.32628°
Mean motion
3.43816 °/min
Orbital period
104.71 mins
BSTAR
0.00013269
Loading maneuver chart data...
Computing Atmospheric mass density...
Loading historical data...
Loading historical data...
Loading historical data...
Loading historical data...
Loading historical data...
Loading historical data...
Loading historical data...

Documentation

Showing up to 5 results
|